TimeCST,TemperatureF,Dew PointF,Humidity,Sea Level PressureIn,VisibilityMPH,Wind Direction,Wind SpeedMPH,Gust SpeedMPH,PrecipitationIn,Events,Conditions,WindDirDegrees,DateUTC
12:55 AM,42.8,28.4,57,30.09,10.0,East,5.8,-,N/A,,Clear,80,2013-02-06 06:55:00
1:15 AM,41.0,28.4,61,30.09,10.0,ENE,5.8,-,N/A,,Clear,70,2013-02-06 07:15:00
1:35 AM,41.0,28.4,61,30.09,10.0,East,5.8,-,N/A,,Clear,80,2013-02-06 07:35:00
1:55 AM,42.8,28.4,57,30.09,10.0,East,5.8,-,N/A,,Clear,80,2013-02-06 07:55:00
1:56 AM,42.8,28.4,57,30.09,10.0,East,5.8,-,N/A,,Clear,80,2013-02-06 07:56:00
2:15 AM,42.8,28.4,57,30.09,10.0,East,5.8,-,N/A,,Clear,90,2013-02-06 08:15:00
2:55 AM,42.8,28.4,57,30.08,10.0,East,9.2,-,N/A,,Clear,90,2013-02-06 08:55:00
3:15 AM,42.8,28.4,57,30.08,10.0,East,6.9,-,N/A,,Clear,90,2013-02-06 09:15:00
3:35 AM,42.8,28.4,57,30.08,10.0,East,8.1,-,N/A,,Clear,90,2013-02-06 09:35:00
3:55 AM,41.0,28.4,61,30.07,10.0,East,8.1,-,N/A,,Clear,80,2013-02-06 09:55:00
4:16 AM,42.8,28.4,57,30.07,10.0,East,8.1,-,N/A,,Clear,90,2013-02-06 10:16:00
4:35 AM,42.8,28.4,57,30.07,10.0,East,9.2,-,N/A,,Clear,100,2013-02-06 10:35:00
4:55 AM,41.0,28.4,61,30.07,10.0,East,8.1,-,N/A,,Clear,100,2013-02-06 10:55:00
5:35 AM,39.2,28.4,65,30.09,10.0,East,6.9,-,N/A,,Clear,90,2013-02-06 11:35:00
6:15 AM,39.2,28.4,65,30.10,10.0,East,6.9,-,N/A,,Clear,100,2013-02-06 12:15:00
6:36 AM,39.2,28.4,65,30.10,10.0,East,6.9,-,N/A,,Clear,100,2013-02-06 12:36:00
6:55 AM,39.2,28.4,65,30.11,10.0,East,8.1,-,N/A,,Clear,100,2013-02-06 12:55:00
7:55 AM,41.0,28.4,61,30.11,10.0,East,8.1,-,N/A,,Clear,100,2013-02-06 13:55:00
8:15 AM,42.8,30.2,61,30.11,10.0,East,8.1,-,N/A,,Clear,100,2013-02-06 14:15:00
8:56 AM,44.6,30.2,57,30.11,10.0,East,8.1,-,N/A,,Partly Cloudy,90,2013-02-06 14:56:00
9:15 AM,46.4,30.2,53,30.11,10.0,East,5.8,-,N/A,,Mostly Cloudy,100,2013-02-06 15:15:00
9:35 AM,48.2,32.0,54,30.11,10.0,East,8.1,-,N/A,,Scattered Clouds,100,2013-02-06 15:35:00
10:35 AM,55.4,35.6,47,30.11,10.0,SE,9.2,-,N/A,,Clear,130,2013-02-06 16:35:00
10:55 AM,55.4,35.6,47,30.11,10.0,SSE,11.5,-,N/A,,Scattered Clouds,150,2013-02-06 16:55:00
11:35 AM,59.0,37.4,45,30.09,10.0,SE,12.7,-,N/A,,Clear,140,2013-02-06 17:35:00
12:35 PM,62.6,39.2,42,30.05,10.0,SSE,11.5,21.9,N/A,,Clear,150,2013-02-06 18:35:00
12:55 PM,62.6,39.2,42,30.04,10.0,South,19.6,25.3,N/A,,Clear,180,2013-02-06 18:55:00
1:15 PM,64.4,39.2,40,30.03,10.0,South,16.1,21.9,N/A,,Clear,190,2013-02-06 19:15:00
1:36 PM,62.6,39.2,42,30.02,10.0,South,9.2,-,N/A,,Clear,170,2013-02-06 19:36:00
1:55 PM,64.4,39.2,40,30.01,10.0,SSE,13.8,21.9,N/A,,Clear,160,2013-02-06 19:55:00
2:15 PM,64.4,37.4,37,30.00,10.0,South,17.3,-,N/A,,Partly Cloudy,190,2013-02-06 20:15:00
2:55 PM,62.6,37.4,39,30.00,10.0,SSE,15.0,20.7,N/A,,Clear,160,2013-02-06 20:55:00
3:15 PM,62.6,37.4,39,29.99,10.0,South,13.8,19.6,N/A,,Clear,170,2013-02-06 21:15:00
3:35 PM,62.6,37.4,39,29.98,10.0,SSE,15.0,23.0,N/A,,Scattered Clouds,160,2013-02-06 21:35:00
3:55 PM,62.6,39.2,42,29.98,10.0,SSE,15.0,20.7,N/A,,Mostly Cloudy,150,2013-02-06 21:55:00
4:15 PM,60.8,37.4,42,29.99,10.0,SSE,17.3,21.9,N/A,,Mostly Cloudy,150,2013-02-06 22:15:00
4:35 PM,59.0,37.4,45,29.98,10.0,SSE,11.5,-,N/A,,Overcast,150,2013-02-06 22:35:00
4:55 PM,59.0,35.6,42,29.98,10.0,South,11.5,-,N/A,,Overcast,170,2013-02-06 22:55:00
5:16 PM,57.2,33.8,41,29.98,10.0,SSE,16.1,21.9,N/A,,Overcast,160,2013-02-06 23:16:00
5:35 PM,55.4,37.4,51,29.98,10.0,SSE,11.5,23.0,N/A,,Overcast,160,2013-02-06 23:35:00
5:55 PM,53.6,39.2,58,29.98,10.0,SE,17.3,21.9,N/A,,Overcast,140,2013-02-06 23:55:00
6:15 PM,51.8,39.2,62,29.98,10.0,SE,12.7,19.6,0.01,,Mostly Cloudy,140,2013-02-07 00:15:00
6:35 PM,50.0,39.2,66,29.98,10.0,SE,9.2,-,0.01,,Partly Cloudy,130,2013-02-07 00:35:00
6:55 PM,51.8,39.2,62,29.97,10.0,SSE,12.7,-,0.01,,Clear,150,2013-02-07 00:55:00
7:15 PM,51.8,39.2,62,29.97,10.0,SE,10.4,-,N/A,,Clear,140,2013-02-07 01:15:00
7:55 PM,50.0,37.4,62,29.97,10.0,SE,9.2,-,N/A,,Clear,130,2013-02-07 01:55:00
8:15 PM,50.0,37.4,62,29.97,10.0,SE,8.1,-,N/A,,Clear,130,2013-02-07 02:15:00
8:35 PM,50.0,37.4,62,29.97,10.0,SE,9.2,-,N/A,,Clear,130,2013-02-07 02:35:00
8:55 PM,50.0,37.4,62,29.98,10.0,SE,9.2,-,N/A,,Clear,140,2013-02-07 02:55:00
8:56 PM,50.0,37.4,62,29.98,10.0,SE,8.1,-,N/A,,Clear,140,2013-02-07 02:56:00
9:15 PM,48.2,37.4,66,29.97,10.0,SE,11.5,-,N/A,,Clear,130,2013-02-07 03:15:00
9:35 PM,50.0,37.4,62,29.97,10.0,SE,12.7,-,N/A,,Clear,140,2013-02-07 03:35:00
9:56 PM,50.0,37.4,62,29.98,10.0,SSE,10.4,-,N/A,,Clear,150,2013-02-07 03:56:00
10:15 PM,48.2,37.4,66,29.98,10.0,SE,9.2,-,N/A,,Mostly Cloudy,140,2013-02-07 04:15:00
10:35 PM,50.0,37.4,62,29.98,10.0,SSE,9.2,-,N/A,,Mostly Cloudy,150,2013-02-07 04:35:00
10:56 PM,48.2,37.4,66,29.98,10.0,SSE,8.1,-,N/A,,Partly Cloudy,150,2013-02-07 04:56:00
11:15 PM,48.2,37.4,66,29.97,10.0,SSE,8.1,-,N/A,,Mostly Cloudy,150,2013-02-07 05:15:00
11:35 PM,48.2,37.4,66,29.97,10.0,SSE,6.9,-,N/A,,Partly Cloudy,150,2013-02-07 05:35:00
11:56 PM,48.2,37.4,66,29.97,10.0,SSE,9.2,-,N/A,,Mostly Cloudy,150,2013-02-07 05:56:00